Location: Frydek-Mistek
(49.6830°N, 18.3330°E)
Time: 02:25:40
(UTC+01:00)

ISS - Pass Details

Date: 06 October 2020
Orbit: 417 x 420 km, 51.6° (Epoch: 25 October)

Event Time Altitude Azimuth Distance (km) Brightness Sun altitude
Rises 18:45:29 0° 288° (WNW) 2,369 1.7 -5.9°
Reaches altitude 10° 18:47:40 10° 279° (W) 1,502 0.8 -6.3°
Maximum altitude 18:50:47 35° 212° (SSW) 690 -2.3 -6.8°
Drops below altitude 10° 18:53:54 10° 144° (SE) 1,496 -1.3 -7.3°
Enters shadow 18:55:38 - 137° (SE) 2,178 -0.5 -7.6°
